Weather in Machuly

Russia / Smolensk Oblast     54°20′20″N   32°32′53″E
temp.,
°C
wind,
m/s
gust,
m/s
humid.,
%
clouds,
%
prec.,
mm/h
press.,
hPa
HPBL,
m
16 may, sun
sun1600:00+11ssw410968 0.2 1009234
03:00+10s389651 0.2 1010174
06:00+10s389574 0.0 1011194
09:00+15ssw4684100 0.0 1011467
12:00+18sw446957 0.2 10121158
15:00+19ssw346656 2.1 10121197
18:00+19ssw247032 0.6 1012929
21:00+14sse238612 0.8 101220
17 may, mon
mon1700:00+13ese2289100 0.0 101222
03:00+12ese3492100 0.0 101263
06:00+12e379297 0.0 1011145
09:00+17e5878100 0.0 1010357
12:00+21e7967100 0.0 1008942
15:00+24ese7136397 0.0 10051566
18:00+23ese7136347 0.0 1004665
21:00+19ese6137473 0.0 1004392
18 may, tue
tue1800:00+18ese7158036 0.0 1002555
03:00+16se61392100 0.0 1002415
06:00+16se71393100 0.1 1002643
09:00+17sse61190100 0.3 1004793
12:00+20s6766100 0.1 10051178
15:00+21sse4564100 0.1 10051264
18:00+18se4786100 1.3 1004360
21:00+15ese3793100 4.4 1005226
19 may, wed
wed1900:00+15ese249298 0.0 1003106
03:00+14ese3893100 0.1 1003221
06:00+14se379644 0.1 1003250
09:00+16sse578199 0.1 1004762
12:00+19se576797 0.1 10031336
15:00+20se7964100 1.4 10031632
18:00+18sse5769100 0.3 10031058
21:00+14s2284100 0.3 100416
20 may, thu
thu2000:00+12ese239099 0.4 100346
03:00+11sse229785 1.8 100352
06:00+11sw259897 1.9 1003240
09:00+14ssw458466 2.4 1003712
12:00+13sw61092100 1.4 1006686
15:00+13wsw7108094 1.6 10081057
18:00+12wsw6108698 0.2 1010868
21:00+10sw3493100 0.2 101268